SCP
0 0 0 0 0 0 0 0 0 0 0 0 0 0 0 0 0 0 0 0 0 0 0 0 0 0 0 0 0 0 0 0 0 0 0 0 0 0 0 0 0 0 0 0
0 0 0 0 0 0 0 0 0 0 0 0 0 0 0 0 0 0 0 0 0 0 0 0 0 0 0 0 0 0 0 0 0 0 0 0 0 0 0 0 0 0 0 0
0 0 0 0 0 0 0 0 0 0 0 0 0 0 0 0 0 0 0 0 0 0 0 0 0 0 0 0 0 0 0 0 0 0 0 0 0 0 0 0 0 0 0 0
0 0 0 0 0 0 0 0 0 0 0 0 0 0 0 0 0 0 0 0 0 0 0 0 0 0 0 0 0 0 0 0 0 0 0 0 0 0 0 0 0 0 0 0
0 0 0 0 0 0 0 0 0 0 0 0 0 0 0 0 0 0 0 0 0 0 0 0 0 0 0 0 0 0 0 0 0 0 0 0 0 0 0 0 0 0 0 0
0 0 0 0 0 0 0 0 0 0 0 0 0 0 0 0 0 0 0 0 0 0 0 0 0 0 0 0 0 0 0 0 0 0 0 0 0 0 0 0 0 0 0 0
0 0 0 0 0 0 0 0 0 0 0 0 0 0 0 0 0 0 0 0 0 0 0 0 0 0 0 0 0 0 0 0 0 0 0 0 0 0 0 0 0 0 0 0
0 0 0 0 0 0 0 0 0 0 0 0 0 0 0 0 0 0 0 0 0 0 0 0 0 0 0 0 0 0 0 0 0 0 0 0 0 0 0 0 0 0 0 0
0 0 0 0 0 0 0 0 0 0 0 0 0 0 0 0 0 0 0 0 0 0 0 0 0 0 0 0 0 0 0 0 0 0 0 0 0 0 0 0 0 0 0 0
0 0 0 0 0 0 0 0 0 0 0 0 0 0 0 0 0 0 0 0 0 0 0 0 0 0 0 0 0 0 0 0 0 0 0 0 0 0 0 0 0 0 0 0
0 0 0 0 0 0 0 0 0 0 0 0 0 0 0 0 0 0 0 0 0 0 0 0 0 0 0 0 0 0 0 0 0 0 0 0 0 0 0 0 0 0 0 0
0 0 0 0 0 0 0 0 0 0 0 0 0 0 0 0 0 0 0 0 0 0 0 0 0 0 0 0 0 0 0 0 0 0 0 0 0 0 0 0 0 0 0 0
0 0 0 0 0 0 0 0 0 0 0 0 0 0 0 0 0 0 0 0 0 0 0 0 0 0 0 0 0 0 0 0 0 0 0 0 0 0 0 0 0 0 0 0
0 0 0 0 0 0 0 0 0 0 0 0 0 0 0 0 0 0 0 0 0 0 0 0 0 0 0 0 0 0 0 0 0 0 0 0 0 0 0 0 0 0 0 0
0 0 0 0 0 0 0 0 0 0 0 0 0 0 0 0 0 0 0 0 0 0 0 0 0 0 0 0 0 0 0 0 0 0 0 0 0 0 0 0 0 0 0 0
0 0 0 0 0 0 0 0 0 0 0 0 0 0 0 0 0 0 0 0 0 0 0 0 0 0 0 0 0 0 0 0 0 0 0 0 0 0 0 0 0 0 0 0
0 0 0 0 0 0 0 0 0 0 0 0 0 0 0 0 0 0 0 0 0 0 0 0 0 0 0 0 0 0 0 0 0 0 0 0 0 0 0 0 0 0 0 0
0 0 0 0 0 0 0 0 0 0 0 0 0 0 0 0 0 0 0 0 0 0 0 0 0 0 0 0 0 0 0 0 0 0 0 0 0 0 0 0 0 0 0 0
0 0 0 0 0 0 0 0 0 0 0 0 0 0 0 0 0 0 0 0 0 0 0 0 0 0 0 0 0 0 0 0 0 0 0 0 0 0 0 0 0 0 0 0
0 0 0 0 0 0 0 0 0 0 0 0 0 0 0 0 0 0 0 0 0 0 0 0 0 0 0 0 0 0 0 0 0 0 0 0 0 0 0 0 0 0 0 0
0 0 0 0 0 0 0 0 0 0 0 0 0 0 0 0 0 0 0 0 0 0 0 0 0 0 0 0 0 0 0 0 0 0 0 0 0 0 0 0 0 0 0 0
0 0 0 0 0 0 0 0 0 0 0 0 0 0 0 0 0 0 0 0 0 0 0 0 0 0 0 0 0 0 0 0 0 0 0 0 0 0 0 0 0 0 0 0
0 0 0 0 0 0 0 0 0 0 0 0 0 0 0 0 0 0 0 0 0 0 0 0 0 0 0 0 0 0 0 0 0 0 0 0 0 0 0 0 0 0 0 0
0 0 0 0 0 0 0 0 0 0 0 0 0 0 0 0 0 0 0 0 0 0 0 0 0 0 0 0 0 0 0 0 0 0 0 0 0 0 0 0 0 0 0 0
0 0 0 0 0 0 0 0 0 0 0 0 0 0 0 0 0 0 0 0 0 0 0 0 0 0 0 0 0 0 0 0 0 0 0 0 0 0 0 0 0 0 0 0
0 0 0 0 0 0 0 0 0 0 0 0 0 0 0 0 0 0 0 0 0 0 0 0 0 0 0 0 0 0 0 0 0 0 0 0 0 0 0 0 0 0 0 0
0 0 0 0 0 0 0 0 0 0 0 0 0 0 0 0 0 0 0 0 0 0 0 0 0 0 0 0 0 0 0 0 0 0 0 0 0 0 0 0 0 0 0 0
Wind_Speed
6 1 2 4 6 9 11 10 8 8 8 4 4 7 8 7 7 7 6 5 4 3 1 1 1 1 1 2 3 3 4 6 6 7 7 8 8 8 8 9 9 9 10 11
5 4 3 6 9 10 11 12 13 12 13 2 3 4 5 6 7 7 6 5 4 2 1 1 1 1 2 3 4 4 5 6 7 8 8 8 8 8 9 9 9 10 10 11
3 1 1 8 10 12 9 8 7 9 5 3 3 3 3 4 5 6 5 4 3 2 1 1 1 2 3 4 4 5 6 7 8 8 8 8 9 9 9 9 9 10 10 11
2 1 8 7 1 1 3 5 5 3 2 3 4 3 2 3 5 5 4 3 2 1 0 1 2 2 3 4 5 6 7 8 8 8 8 8 9 9 10 9 9 9 10 11
3 4 9 6 3 3 2 4 4 4 3 5 6 3 1 3 5 4 4 3 2 1 1 2 3 3 4 5 6 7 8 8 8 7 9 9 10 10 10 9 9 9 10 11
4 4 7 3 2 2 2 4 1 3 5 7 6 2 2 4 5 5 4 2 1 1 2 3 4 3 4 6 7 8 8 7 7 8 9 10 11 11 9 9 10 10 10 10
5 6 9 2 4 3 4 4 2 3 4 6 5 3 3 5 4 4 2 1 0 1 2 3 4 4 6 7 8 8 8 8 8 9 9 10 10 9 10 10 10 10 11 11
6 7 10 6 6 6 4 3 3 3 3 5 5 5 4 3 2 2 0 1 1 2 3 4 4 5 7 8 8 8 8 9 9 9 9 9 10 10 9 9 10 10 11 11
8 8 2 6 4 3 3 3 3 3 4 5 5 4 3 2 1 1 1 2 2 3 4 5 5 6 8 9 8 8 8 9 9 10 9 9 9 10 9 8 8 9 9 11
2 3 4 5 3 3 3 3 3 4 4 4 3 3 2 2 1 1 2 2 2 4 5 6 6 7 8 9 8 8 9 9 9 9 9 9 8 8 8 8 9 9 10 11
4 2 2 4 5 4 4 4 4 4 3 3 3 2 2 1 1 2 2 2 3 4 6 8 7 8 8 8 8 9 9 9 9 8 9 9 8 8 10 8 11 14 11 10
5 4 4 3 4 5 5 5 4 4 3 3 2 2 1 1 2 2 3 3 4 6 7 8 8 9 9 8 8 9 9 8 8 8 8 8 9 10 15 18 24 26 25 23
2 3 4 5 5 4 5 4 4 4 3 2 1 1 1 1 2 3 4 5 6 7 8 8 9 9 9 8 8 9 9 9 8 8 9 9 9 10 12 14 19 23 25 26
4 4 3 3 4 4 5 4 4 3 2 1 1 0 1 2 3 4 5 6 7 8 8 8 9 10 9 8 9 9 9 11 12 8 8 9 9 10 11 13 13 11 15 22
3 2 3 5 5 5 5 4 3 2 1 0 0 1 2 3 5 6 6 7 7 8 9 9 10 11 9 9 9 9 9 8 8 8 8 9 10 10 10 12 12 12 11 12
4 4 4 5 5 4 4 3 2 1 0 1 2 3 3 4 6 7 7 7 7 9 9 9 11 11 9 9 9 9 8 16 16 11 9 10 10 10 11 11 12 12 11 10
5 4 4 4 4 3 2 2 1 0 1 2 3 4 5 6 7 8 8 7 7 9 9 10 11 10 9 8 9 8 8 11 19 14 10 10 10 11 11 11 11 11 11 13
3 3 4 4 3 3 1 1 0 1 2 3 4 5 6 7 8 9 9 8 9 10 10 10 10 10 9 9 8 8 8 8 9 10 11 10 11 10 10 11 11 12 11 12
5 5 5 4 3 2 1 1 2 3 4 4 5 6 6 7 8 9 9 9 10 12 11 9 16 12 9 10 14 8 8 10 11 11 10 15 14 10 10 10 11 11 11 11
5 4 4 3 2 1 1 2 3 4 4 4 5 6 8 9 8 9 9 10 9 10 10 12 11 9 9 10 15 8 9 11 12 11 11 11 11 11 10 11 11 11 11 11
3 3 2 1 0 1 2 3 3 5 5 5 6 8 9 10 9 9 9 11 10 9 10 15 10 8 8 12 16 9 9 11 11 11 11 11 11 11 11 11 11 11 11 11
2 1 0 1 1 3 3 3 4 5 6 7 8 8 9 10 10 9 10 10 10 14 11 7 7 13 18 20 9 9 10 11 11 10 10 11 11 11 11 11 11 11 11 10
0 0 1 2 2 3 5 5 6 6 7 8 8 9 10 9 8 9 11 8 7 15 12 7 15 24 27 15 9 10 11 11 11 11 10 10 10 10 11 12 11 11 11 10
1 2 2 3 3 4 6 7 7 6 7 8 8 9 9 9 8 7 8 14 18 20 11 14 24 26 25 10 8 9 9 10 10 10 11 10 10 10 10 10 11 10 11 12
2 3 3 4 4 5 6 6 7 7 8 7 8 8 7 6 8 8 8 9 16 19 11 14 23 24 15 8 9 9 9 10 12 12 10 10 10 10 10 10 11 11 11 11
3 3 4 4 5 5 5 5 5 6 6 7 7 6 6 6 7 8 8 10 12 17 13 9 10 13 9 9 9 10 10 11 12 11 11 11 11 11 11 11 13 11 11 11
3 3 3 4 4 4 4 5 6 6 6 7 9 8 7 7 8 9 10 9 9 10 9 9 8 9 9 9 10 10 10 10 10 10 10 10 10 10 11 13 11 11 11 11
Wind_Direction
279 282 192 231 230 213 217 228 240 254 268 270 174 178 172 161 152 148 150 150 152 154 170 173 211 259 291 299 298 295 294 291 286 285 285 284 283 283 283 283 285 285 285 284
276 251 249 260 251 241 236 237 245 263 271 294 99 115 139 150 154 157 155 154 154 163 191 224 256 281 292 288 290 295 294 289 287 285 283 280 280 282 283 284 284 285 285 286
259 164 355 260 241 233 229 226 227 246 251 115 112 128 146 153 155 152 148 144 156 177 207 241 273 286 286 285 294 294 287 284 285 284 284 284 287 290 288 287 285 286 286 286
246 238 243 243 143 227 243 252 227 206 174 140 128 103 83 108 131 135 131 134 143 156 235 283 296 293 287 292 293 288 285 284 285 287 291 294 294 292 290 287 286 287 288 287
183 238 267 253 201 178 198 267 230 210 169 117 93 71 45 98 96 112 116 116 126 137 278 284 284 284 293 294 289 287 285 286 291 297 299 298 295 291 290 290 289 286 286 287
182 215 244 243 116 69 84 268 234 153 142 130 120 165 225 126 96 87 87 85 78 358 301 290 288 298 298 290 289 287 288 292 296 296 294 293 290 290 290 289 288 289 288 287
207 226 255 194 144 133 179 235 113 114 134 143 162 172 124 100 95 96 93 86 333 288 284 284 294 300 290 288 287 289 296 297 294 291 290 289 289 289 290 291 291 290 290 288
187 214 245 156 152 189 199 127 113 112 121 128 118 105 104 104 109 117 147 267 286 290 287 292 297 297 292 289 289 294 296 295 293 291 292 295 292 291 290 292 294 293 292 291
195 209 177 155 162 137 117 129 123 120 114 121 130 142 139 145 162 197 246 276 291 289 291 292 294 295 293 291 294 296 295 294 293 294 292 291 291 294 295 292 291 293 293 293
248 219 169 171 153 135 131 128 114 115 120 129 141 142 150 170 206 253 274 284 292 296 293 293 295 292 287 291 295 296 295 294 294 296 295 293 291 292 293 292 292 292 293 294
238 221 167 187 182 163 136 123 118 113 115 124 131 147 170 208 249 268 285 287 290 287 285 287 291 290 290 292 295 294 292 293 295 293 294 295 291 287 290 282 286 294 291 289
213 192 178 175 155 148 147 151 145 135 127 125 139 166 194 247 267 279 283 286 285 281 281 286 289 290 290 290 291 293 294 294 293 293 293 292 294 295 290 291 297 298 297 296
125 80 87 105 106 113 134 139 135 139 146 148 154 168 235 272 282 285 284 284 281 281 281 284 287 289 291 293 293 290 289 292 293 291 293 293 294 296 299 299 296 297 298 300
108 106 119 125 124 116 113 113 113 116 122 133 139 319 289 286 285 283 280 279 281 283 284 286 289 290 293 296 294 291 291 294 295 290 289 290 291 291 293 297 300 296 296 299
137 124 129 119 117 114 114 117 122 133 139 169 297 281 278 278 277 278 280 283 285 285 286 289 291 292 294 294 293 293 293 290 288 286 287 288 289 290 290 291 293 296 297 299
128 115 123 131 135 131 129 133 147 178 240 298 297 288 284 280 280 281 281 283 287 287 288 289 288 289 291 291 292 291 289 293 298 295 292 291 290 290 291 292 294 295 297 299
145 157 154 147 140 133 128 120 128 250 295 289 284 288 289 287 285 283 285 286 283 283 285 285 286 288 289 290 291 291 289 292 297 297 290 288 288 289 290 291 292 294 294 298
129 118 115 119 119 115 104 73 4 289 277 276 282 282 280 281 283 286 288 289 290 287 284 281 283 290 290 291 291 288 289 290 290 289 290 289 290 288 290 291 292 293 295 300
90 89 85 84 90 99 96 302 287 278 274 273 274 275 276 278 280 283 287 291 291 290 288 281 294 298 291 290 298 289 289 291 292 290 290 293 296 292 290 291 292 293 296 298
87 85 84 78 73 87 259 268 272 275 276 280 283 283 282 281 282 285 287 283 276 275 282 290 294 290 289 289 298 290 289 291 292 293 293 291 291 292 292 292 293 294 295 296
98 97 101 113 266 269 267 276 283 284 287 285 279 278 279 281 283 284 286 287 284 280 286 297 298 292 294 296 301 294 292 292 293 293 293 293 292 292 292 293 294 296 297 298
123 127 169 278 289 291 292 292 287 284 284 281 278 278 281 284 284 281 272 275 286 295 299 292 291 296 303 306 299 294 293 294 294 294 293 292 292 292 293 295 296 296 296 296
92 319 300 295 292 292 295 289 281 277 276 277 278 280 279 280 282 286 290 286 287 299 303 292 300 305 308 309 299 297 296 295 295 295 294 294 293 293 294 295 295 296 296 296
315 307 293 291 294 289 284 280 276 274 273 275 273 272 275 282 282 272 274 295 304 305 301 299 306 308 312 307 297 295 295 294 294 294 294 293 292 292 293 294 295 296 296 296
275 278 279 280 278 272 272 281 286 284 281 278 276 275 273 272 282 292 292 294 300 305 301 302 305 308 308 296 295 294 294 292 294 297 296 297 296 295 294 294 294 296 296 295
272 269 266 264 265 271 276 280 282 284 288 291 290 287 287 287 288 292 293 293 293 300 302 298 298 301 296 293 293 293 293 297 299 298 294 293 294 295 295 295 295 294 294 294
278 274 275 279 278 273 275 280 285 288 290 293 296 297 297 297 296 296 297 297 298 297 297 296 296 295 295 295 295 294 294 294 294 294 294 293 293 294 295 294 295 294 294 294